H1 CPF 2 NER 2021 8 27 9 239 01 glonass134 H2 1407501 9134 40315 2021 8 27 0 0 0 2021 8 30 23 45 0 900 1 1 0 0 0 1 H9 10 0 59453 0.00000 0 2878243.085 22946632.239 10700961.016 10 0 59453 900.00000 0 2880025.619 24088342.474 7781936.311 10 0 59453 1800.00000 0 2963590.004 24857825.759 4711196.715 10 0 59453 2700.00000 0 3077435.655 25235754.847 1548562.900 10 0 59453 3600.00000 0 3167912.105 25215710.330 -1644286.519 10 0 59453 4500.00000 0 3181749.116 24804410.935 -4805033.977 10 0 59453 5400.00000 0 3068577.127 24021406.004 -7871958.557 10 0 59453 6300.00000 0 2783328.457 22898242.283 -10785162.005 10 0 59453 7200.00000 0 2288414.738 21477140.312 -13487758.911 10 0 59453 8100.00000 0 1555585.606 19809237.029 -15927005.714 10 0 59453 9000.00000 0 567387.599 17952469.982 -18055344.666 10 0 59453 9900.00000 0 -681840.203 15969194.017 -19831340.911 10 0 59453 10800.00000 0 -2185477.079 13923632.528 -21220493.620 10 0 59453 11700.00000 0 -3924659.280 11879271.967 -22195905.154 10 0 59453 12600.00000 0 -5868844.642 9896310.267 -22738795.560 10 0 59453 13500.00000 0 -7976879.014 8029266.684 -22838853.319 10 0 59453 14400.00000 0 -10198518.957 6324852.984 -22494416.826 10 0 59453 15300.00000 0 -12476345.967 4820194.073 -21712484.673 10 0 59453 16200.00000 0 -14747991.335 3541470.722 -20508556.272 10 0 59453 17100.00000 0 -16948578.122 2503038.649 -18906307.629 10 0 59453 18000.00000 0 -19013277.995 1707057.960 -16937110.206 10 0 59453 18900.00000 0 -20879876.510 1143645.217 -14639403.614 10 0 59453 19800.00000 0 -22491240.573 791538.566 -12057935.413 10 0 59453 20700.00000 0 -23797586.271 619245.151 -9242883.657 10 0 59453 21600.00000 0 -24758454.055 586620.065 -6248879.663 10 0 59453 22500.00000 0 -25344310.695 646808.614 -3133950.067 10 0 59453 23400.00000 0 -25537713.037 748468.987 41601.418 10 0 59453 24300.00000 0 -25333986.858 838181.205 3216351.421 10 0 59453 25200.00000 0 -24741394.142 862941.018 6328931.918 10 0 59453 26100.00000 0 -23780782.992 772634.273 9319201.082 10 0 59453 27000.00000 0 -22484735.566 522388.425 12129388.614 10 0 59453 27900.00000 0 -20896249.690 74703.141 14705194.940 10 0 59453 28800.00000 0 -19067008.696 -598728.827 16996824.433 10 0 59453 29700.00000 0 -17055310.544 -1515586.612 18959934.277 10 0 59453 30600.00000 0 -14923740.934 -2681932.476 20556482.028 10 0 59453 31500.00000 0 -12736685.498 -4091711.570 21755456.568 10 0 59453 32400.00000 0 -10557782.563 -5726762.775 22533479.142 10 0 59453 33300.00000 0 -8447420.517 -7557342.416 22875263.158 10 0 59453 34200.00000 0 -6460382.269 -9543141.744 22773923.577 10 0 59453 35100.00000 0 -4643733.550 -11634758.858 22231129.148 10 0 59453 36000.00000 0 -3035042.251 -13775566.915 21257093.193 10 0 59453 36900.00000 0 -1661002.933 -15903903.639 19870401.300 10 0 59453 37800.00000 0 -536524.296 -17955493.330 18097677.192 10 0 59453 38700.00000 0 335681.420 -19866002.122 15973090.936 10 0 59453 39600.00000 0 964988.746 -21573620.617 13537716.879 10 0 59453 40500.00000 0 1372232.510 -23021565.945 10838751.839 10 0 59453 41400.00000 0 1588589.953 -24160397.618 7928607.234 10 0 59453 42300.00000 0 1654017.964 -24950048.448 4863892.005 10 0 59453 43200.00000 0 1615311.450 -25361483.201 1704305.930 10 0 59453 44100.00000 0 1523865.648 -25377912.952 -1488534.577 10 0 59453 45000.00000 0 1433238.487 -24995511.799 -4652314.023 10 0 59453 45900.00000 0 1396618.318 -24223603.953 -7725253.264 10 0 59453 46800.00000 0 1464306.861 -23084312.022 -10647336.636 10 0 59453 47700.00000 0 1681326.772 -21611680.818 -13361504.500 10 0 59453 48600.00000 0 2085257.972 -19850313.805 -15814785.801 10 0 59453 49500.00000 0 2704396.850 -17853580.452 -17959346.702 10 0 59453 50400.00000 0 3556318.229 -15681471.347 -19753433.303 10 0 59453 51300.00000 0 4646902.307 -13398192.814 -21162189.298 10 0 59453 52200.00000 0 5969868.438 -11069603.622 -22158332.356 10 0 59453 53100.00000 0 7506835.465 -8760602.648 -22722676.388 10 0 59453 54000.00000 0 9227905.720 -6532577.691 -22844490.441 10 0 59453 54900.00000 0 11092747.344 -4441022.270 -22521688.530 10 0 59453 55800.00000 0 13052128.453 -2533419.445 -21760848.289 10 0 59453 56700.00000 0 15049837.854 -847479.565 -20577059.814 10 0 59453 57600.00000 0 17024911.022 590196.646 -18993609.356 10 0 59453 58500.00000 0 18914067.600 1764976.534 -17041505.623 10 0 59453 59400.00000 0 20654258.340 2674542.824 -14758859.331 10 0 59453 60300.00000 0 22185215.392 3328718.592 -12190129.149 10 0 59453 61200.00000 0 23451900.011 3748780.437 -9385249.568 10 0 59453 62100.00000 0 24406746.665 3966291.589 -6398658.121 10 0 59453 63000.00000 0 25011611.204 4021506.339 -3288240.918 10 0 59453 63900.00000 0 25239343.329 3961414.572 -114216.894 10 0 59453 64800.00000 0 25074919.346 3837509.698 3062018.175 10 0 59453 65700.00000 0 24516089.378 3703374.282 6179066.298 10 0 59453 66600.00000 0 23573513.170 3612184.734 9176698.788 10 0 59453 67500.00000 0 22270379.608 3614239.434 11997003.328 10 0 59453 68400.00000 0 20641525.935 3754613.385 14585485.873 10 0 59453 69300.00000 0 18732093.022 4071037.103 16892107.549 10 0 59453 70200.00000 0 16595771.689 4592088.149 18872238.053 10 0 59453 71100.00000 0 14292711.498 5335770.994 20487508.552 10 0 59453 72000.00000 0 11887177.140 6308545.047 21706548.686 10 0 59453 72900.00000 0 9445047.662 7504842.597 22505594.242 10 0 59453 73800.00000 0 7031260.210 8907098.560 22868954.098 10 0 59453 74700.00000 0 4707302.578 10486293.112 22789327.149 10 0 59453 75600.00000 0 2528857.039 12202987.314 22267962.367 10 0 59453 76500.00000 0 543692.258 14008811.594 21314657.537 10 0 59453 77400.00000 0 -1210109.494 15848347.835 19947594.958 10 0 59453 78300.00000 0 -2705515.992 17661329.180 18193015.170 10 0 59453 79200.00000 0 -3927442.130 19385067.743 16084732.766 10 0 59453 80100.00000 0 -4873141.964 20957009.934 13663501.485 10 0 59453 81000.00000 0 -5552078.233 22317312.843 10976238.965 10 0 59453 81900.00000 0 -5985273.847 23411333.165 8075124.670 10 0 59453 82800.00000 0 -6204171.844 24191922.797 5016587.702 10 0 59453 83700.00000 0 -6249051.659 24621432.654 1860203.979 10 0 59453 84600.00000 0 -6167068.991 24673337.992 -1332475.268 10 0 59453 85500.00000 0 -6010003.208 24333414.286 -4499139.534 10 0 59454 0.00000 0 -5831809.374 23600411.911 -7577954.198 10 0 59454 900.00000 0 -5686081.147 22486198.973 -10508788.917 10 0 59454 1800.00000 0 -5623533.781 21015366.167 -13234412.152 10 0 59454 2700.00000 0 -5689618.137 19224308.209 -15701627.428 10 0 59454 3600.00000 0 -5922367.620 17159822.421 -17862326.584 10 0 59454 4500.00000 0 -6350572.500 14877283.309 -19674438.130 10 0 59454 5400.00000 0 -6992359.882 12438471.542 -21102751.409 10 0 59454 6300.00000 0 -7854240.430 9909149.731 -22119600.215 10 0 59454 7200.00000 0 -8930662.264 7356488.034 -22705392.821 10 0 59454 8100.00000 0 -10204090.497 4846448.289 -22848979.002 10 0 59454 9000.00000 0 -11645608.266 2441236.405 -22547848.185 10 0 59454 9900.00000 0 -13216012.804 196929.207 -21808156.445 10 0 59454 10800.00000 0 -14867359.326 -1838626.345 -20644583.554 10 0 59454 11700.00000 0 -16544886.766 -3627555.742 -19080024.579 10 0 59454 12600.00000 0 -18189243.682 -5143271.042 -17145123.679 10 0 59454 13500.00000 0 -19738920.506 -6371304.694 -14877660.548 10 0 59454 14400.00000 0 -21132786.155 -7309631.539 -12321802.587 10 0 59454 15300.00000 0 -22312623.081 -7968468.815 -9527238.186 10 0 59454 16200.00000 0 -23225555.452 -8369565.767 -6548208.451 10 0 59454 17100.00000 0 -23826269.916 -8545015.383 -3442456.291 10 0 59454 18000.00000 0 -24078937.391 -8535640.326 -270113.168 10 0 59454 18900.00000 0 -23958756.903 -8389022.391 2907455.409 10 0 59454 19800.00000 0 -23453058.278 -8157259.132 6028824.133 10 0 59454 20700.00000 0 -22561918.722 -7894542.152 9033680.062 10 0 59454 21600.00000 0 -21298268.255 -7654658.470 11863971.376 10 0 59454 22500.00000 0 -19687479.786 -7488519.266 14465011.958 10 0 59454 23400.00000 0 -17766460.618 -7441818.847 16786521.888 10 0 59454 24300.00000 0 -15582282.195 -7552921.270 18783585.332 10 0 59454 25200.00000 0 -13190403.604 -7851062.634 20417508.716 10 0 59454 26100.00000 0 -10652560.719 -8354944.255 21656563.710 10 0 59454 27000.00000 0 -8034406.382 -9071776.060 22476601.520 10 0 59454 27900.00000 0 -5402997.140 -9996811.385 22861526.976 10 0 59454 28800.00000 0 -2824228.615 -11113394.361 22803622.995 10 0 59454 29700.00000 0 -360323.888 -12393520.260 22303718.487 10 0 59454 30600.00000 0 1932522.379 -13798888.089 21371195.084 10 0 59454 31500.00000 0 4006247.102 -15282404.251 20023830.854 10 0 59454 32400.00000 0 5822682.081 -16790077.090 18287481.919 10 0 59454 33300.00000 0 7354903.760 -18263225.354 16195605.864 10 0 59454 34200.00000 0 8588112.312 -19640909.642 13788633.986 10 0 59454 35100.00000 0 9520002.270 -20862485.709 11113202.609 10 0 59454 36000.00000 0 10160608.116 -21870172.305 8221256.833 10 0 59454 36900.00000 0 10531630.315 -22611524.590 5169043.267 10 0 59454 37800.00000 0 10665269.672 -23041707.260 2016011.122 10 0 59454 38700.00000 0 10602619.221 -23125469.301 -1176356.511 10 0 59454 39600.00000 0 10391682.220 -22838734.491 -4345757.139 10 0 59454 40500.00000 0 10085101.500 -22169738.000 -7430303.772 10 0 59454 41400.00000 0 9737698.240 -21119658.813 -10369754.092 10 0 59454 42300.00000 0 9403926.790 -19702719.601 -13106707.535 10 0 59454 43200.00000 0 9135355.959 -17945748.727 -15587744.844 10 0 59454 44100.00000 0 8978285.978 -15887222.506 -17764485.891 10 0 59454 45000.00000 0 8971604.220 -13575828.383 -19594543.644 10 0 59454 45900.00000 0 9144972.120 -11068610.267 -21042354.775 10 0 59454 46800.00000 0 9517421.002 -8428774.995 -22079870.441 10 0 59454 47700.00000 0 10096416.445 -5723253.154 -22687094.049 10 0 59454 48600.00000 0 10877430.380 -3020117.337 -22852456.383 10 0 59454 49500.00000 0 11844038.071 -385966.322 -22573022.103 10 0 59454 50400.00000 0 12968534.615 2116615.509 -21854525.103 10 0 59454 51300.00000 0 14213043.557 4431418.262 -20711233.802 10 0 59454 52200.00000 0 15531069.530 6510689.167 -19165650.705 10 0 59454 53100.00000 0 16869428.354 8316852.937 -17248053.693 10 0 59454 54000.00000 0 18170472.568 9823800.868 -14995889.406 10 0 59454 54900.00000 0 19374518.427 11017697.955 -12453031.646 10 0 59454 55800.00000 0 20422372.377 11897277.576 -9668920.091 10 0 59454 56700.00000 0 21257851.449 12473614.690 -6697596.569 10 0 59454 57600.00000 0 21830192.599 12769390.051 -3596657.752 10 0 59454 58500.00000 0 22096251.095 12817678.775 -426144.496 10 0 59454 59400.00000 0 22022397.041 12660316.025 2752611.113 10 0 59454 60300.00000 0 21586031.841 12345909.660 5878159.510 10 0 59454 61200.00000 0 20776662.211 11927583.838 8890106.389 10 0 59454 62100.00000 0 19596487.541 11460548.257 11730263.075 10 0 59454 63000.00000 0 18060476.317 10999594.540 14343753.737 10 0 59454 63900.00000 0 16195928.141 10596623.920 16680059.460 10 0 59454 64800.00000 0 14041538.659 10298308.931 18693980.618 10 0 59454 65700.00000 0 11646004.816 10143986.231 20346500.312 10 0 59454 66600.00000 0 9066226.438 10163868.203 21605533.352 10 0 59454 67500.00000 0 6365176.439 10377648.127 22446547.161 10 0 59454 68400.00000 0 3609525.421 10793557.742 22853042.962 10 0 59454 69300.00000 0 867116.702 11407917.778 22816887.779 10 0 59454 70200.00000 0 -1795605.899 12205201.977 22338490.129 10 0 59454 71100.00000 0 -4316112.748 13158614.172 21426814.730 10 0 59454 72000.00000 0 -6638142.470 14231156.786 20099234.217 10 0 59454 72900.00000 0 -8713798.305 15377148.582 18381218.656 10 0 59454 73800.00000 0 -10505299.588 16544130.429 16305866.579 10 0 59454 74700.00000 0 -11986314.715 17675080.965 13913284.474 10 0 59454 75600.00000 0 -13142819.020 18710850.246 11249824.731 10 0 59454 76500.00000 0 -13973440.474 19592709.381 8367195.290 10 0 59454 77400.00000 0 -14489277.513 20264908.144 5321457.385 10 0 59454 78300.00000 0 -14713195.843 20677131.365 2171930.596 10 0 59454 79200.00000 0 -14678633.455 20786748.301 -1019973.030 10 0 59454 80100.00000 0 -14427964.517 20560757.479 -4191961.856 10 0 59454 81000.00000 0 -14010492.218 19977342.112 -7282099.222 10 0 59454 81900.00000 0 -13480157.069 19026967.789 -10230033.540 10 0 59454 82800.00000 0 -12893059.725 17712973.901 -12978197.594 10 0 59454 83700.00000 0 -12304905.642 16051632.203 -15472951.485 10 0 59454 84600.00000 0 -11768482.183 14071669.112 -17665645.008 10 0 59454 85500.00000 0 -11331277.209 11813271.649 -19513577.154 10 0 59455 0.00000 0 -11033341.656 9326619.248 -20980833.145 10 0 59455 900.00000 0 -10905487.959 6670003.590 -22038982.465 10 0 59455 1800.00000 0 -10967899.844 3907616.984 -22667624.224 10 0 59455 2700.00000 0 -11229213.777 1107102.169 -22854770.462 10 0 59455 3600.00000 0 -11686107.853 -1663032.966 -22597060.962 10 0 59455 4500.00000 0 -12323415.469 -4336027.443 -21899806.958 10 0 59455 5400.00000 0 -13114756.623 -6849397.520 -20776864.664 10 0 59455 6300.00000 0 -14023658.612 -9147280.788 -19250342.779 10 0 59455 7200.00000 0 -15005117.205 -11182497.930 -17350151.315 10 0 59455 8100.00000 0 -16007531.151 -12918248.551 -15113401.958 10 0 59455 9000.00000 0 -16974927.640 -14329373.150 -12583672.755 10 0 59455 9900.00000 0 -17849384.566 -15403131.564 -9810152.334 10 0 59455 10800.00000 0 -18573547.710 -16139468.620 -6846680.796 10 0 59455 11700.00000 0 -19093137.493 -16550758.896 -3750706.046 10 0 59455 12600.00000 0 -19359340.753 -16661043.983 -582175.772 10 0 59455 13500.00000 0 -19330988.177 -16504796.423 2597613.953 10 0 59455 14400.00000 0 -18976427.118 -16125263.699 5727191.902 10 0 59455 15300.00000 0 -18275012.327 -15572462.646 8746085.001 10 0 59455 16200.00000 0 -17218152.937 -14900908.615 11595970.286 10 0 59455 17100.00000 0 -15809872.203 -14167174.291 14221784.695 10 0 59455 18000.00000 0 -14066856.477 -13427379.693 16572772.676 10 0 59455 18900.00000 0 -12017990.565 -12734717.484 18603452.954 10 0 59455 19800.00000 0 -9703397.343 -12137116.106 20274487.190 10 0 59455 20700.00000 0 -7173019.683 -11675137.567 21553434.893 10 0 59455 21600.00000 0 -4484801.122 -11380197.242 22415380.891 10 0 59455 22500.00000 0 -1702538.047 -11273179.984 22843423.621 10 0 59455 23400.00000 0 1106510.250 -11363510.917 22829014.646 10 0 59455 24300.00000 0 3874157.223 -11648720.843 22372142.160 10 0 59455 25200.00000 0 6533867.594 -12114526.119 21481353.687 10 0 59455 26100.00000 0 9023273.440 -12735421.704 20173615.812 10 0 59455 27000.00000 0 11286524.440 -13475764.817 18474011.591 10 0 59455 27900.00000 0 13276374.965 -14291306.002 16415279.232 10 0 59455 28800.00000 0 14955920.662 -15131105.219 14037198.772 10 0 59455 29700.00000 0 16299911.242 -15939753.770 11385836.668 10 0 59455 30600.00000 0 17295583.372 -16659809.180 8512661.329 10 0 59455 31500.00000 0 17942977.367 -17234340.109 5473545.890 10 0 59455 32400.00000 0 18254723.242 -17609472.882 2327677.296 10 0 59455 33300.00000 0 18255304.331 -17736830.177 -863606.678 10 0 59455 34200.00000 0 17979829.253 -17575756.387 -4038028.584 10 0 59455 35100.00000 0 17472364.530 -17095232.820 -7133605.417 10 0 59455 36000.00000 0 16783899.446 -16275398.922 -10089879.556 10 0 59455 36900.00000 0 15970030.920 -15108612.732 -12849120.178 10 0 59455 37800.00000 0 15088468.490 -13600003.640 -15357469.551 10 0 59455 38700.00000 0 14196467.265 -11767492.656 -17566009.883 10 0 59455 39600.00000 0 13348299.670 -9641278.600 -19431728.352 10 0 59455 40500.00000 0 12592874.746 -7262811.717 -20918360.535 10 0 59455 41400.00000 0 11971606.918 -4683298.217 -21997095.498 10 0 59455 42300.00000 0 11516624.844 -1961799.348 -22647128.962 10 0 59455 43200.00000 0 11249395.776 836994.536 -22856054.655 10 0 59455 44100.00000 0 11179822.536 3645221.012 -22620087.426 10 0 59455 45000.00000 0 11305849.717 6394430.544 -21944115.353 10 0 59455 45900.00000 0 11613593.702 9018191.533 -20841581.525 10 0 59455 46800.00000 0 12077988.899 11454607.432 -19334199.533 10 0 59455 47700.00000 0 12663920.789 13648642.166 -17451509.868 10 0 59455 48600.00000 0 13327796.117 15554158.811 -15230287.269 10 0 59455 49500.00000 0 14019482.514 17135588.916 -12713811.730 10 0 59455 50400.00000 0 14684534.797 18369165.533 -9951018.246 10 0 59455 51300.00000 0 15266613.635 19243671.459 -6995542.345 10 0 59455 52200.00000 0 15709994.763 19760674.420 -3904680.128 10 0 59455 53100.00000 0 15962063.597 19934242.042 -738282.943 10 0 59455 54000.00000 0 15975691.116 19790150.947 2442392.353 10 0 59455 54900.00000 0 15711392.124 19364624.900 5575856.025 10 0 59455 55800.00000 0 15139176.255 18702655.997 8601559.230 10 0 59455 56700.00000 0 14240014.915 17855979.754 11461047.497 10 0 59455 57600.00000 0 13006863.106 16880788.790 14099073.043 10 0 59455 58500.00000 0 11445193.443 15835280.133 16464645.892 10 0 59455 59400.00000 0 9573019.369 14777137.793 18512005.013 10 0 59455 60300.00000 0 7420405.336 13761054.628 20201492.208 10 0 59455 61200.00000 0 5028482.520 12836395.865 21500312.941 10 0 59455 62100.00000 0 2448008.563 12045100.914 22383170.368 10 0 59455 63000.00000 0 -262471.642 11419910.431 22832760.702 10 0 59455 63900.00000 0 -3038790.666 10982992.601 22840120.210 10 0 59455 64800.00000 0 -5813561.937 10745026.494 22404816.507 10 0 59455 65700.00000 0 -8518724.733 10704781.802 21534979.208 10 0 59455 66600.00000 0 -11088127.242 10849214.125 20247167.654 10 0 59455 67500.00000 0 -13460041.950 11154073.627 18566076.234 10 0 59455 68400.00000 0 -15579509.474 11585003.531 16524080.727 10 0 59455 69300.00000 0 -17400413.194 12099084.177 14160632.257 10 0 59455 70200.00000 0 -18887197.414 12646759.144 11521508.593 10 0 59455 71100.00000 0 -20016156.105 13174063.186 8657935.682 10 0 59455 72000.00000 0 -20776236.663 13625058.083 5625595.544 10 0 59455 72900.00000 0 -21169323.531 13944372.821 2483539.458 10 0 59455 73800.00000 0 -21209988.516 14079739.150 -706972.035 10 0 59455 74700.00000 0 -20924717.543 13984413.087 -3883678.548 10 0 59455 75600.00000 0 -20350646.372 13619377.183 -6984553.477 10 0 59455 76500.00000 0 -19533859.257 12955227.498 -9949035.760 10 0 59455 77400.00000 0 -18527323.695 11973662.679 -12719233.372 10 0 59455 78300.00000 0 -17388550.355 10668509.753 -15241072.916 10 0 59455 79200.00000 0 -16177079.194 9046241.374 -17465370.910 10 0 59455 80100.00000 0 -14951900.181 7125961.494 -19348804.278 10 0 59455 81000.00000 0 -13768919.484 4938859.481 -20854760.151 10 0 59455 81900.00000 0 -12678579.544 2527155.616 -21954048.053 10 0 59455 82800.00000 0 -11723734.251 -57417.172 -22625460.768 10 0 59455 83700.00000 0 -10937868.825 -2755530.982 -22856173.785 10 0 59455 84600.00000 0 -10343738.626 -5502498.976 -22641976.748 10 0 59455 85500.00000 0 -9952482.773 -8230735.557 -21987333.939 10 0 59456 0.00000 0 -9763247.786 -10872337.750 -20905274.380 10 0 59456 900.00000 0 -9763334.872 -13361680.285 -19417115.199 10 0 59456 1800.00000 0 -9928861.543 -15637917.011 -17552025.812 10 0 59456 2700.00000 0 -10225908.190 -17647285.208 -15346442.182 10 0 59456 3600.00000 0 -10612098.153 -19345119.578 -12843344.247 10 0 59456 4500.00000 0 -11038543.723 -20697493.312 -10091411.231 10 0 59456 5400.00000 0 -11452074.647 -21682420.872 -7144071.891 10 0 59456 6300.00000 0 -11797654.773 -22290574.901 -4058468.285 10 0 59456 7200.00000 0 -12020885.020 -22525489.890 -894353.172 10 0 59456 8100.00000 0 -12070487.739 -22403246.516 2287058.065 10 0 59456 9000.00000 0 -11900668.668 -21951651.775 5424259.461 10 0 59456 9900.00000 0 -11473258.082 -21208950.543 8456628.708 10 0 59456 10800.00000 0 -10759542.049 -20222123.240 11325582.140 10 0 59456 11700.00000 0 -9741707.545 -19044840.860 13975689.561 10 0 59456 12600.00000 0 -8413841.121 -17735162.396 16355728.814 10 0 59456 13500.00000 0 -6782438.923 -16353069.910 18419661.259 10 0 59456 14400.00000 0 -4866405.782 -14957942.893 20127510.793 10 0 59456 15300.00000 0 -2696541.756 -13606075.955 21446130.567 10 0 59456 16200.00000 0 -314535.240 -12348342.066 22349843.513 10 0 59456 17100.00000 0 2228498.266 -11228097.714 22820944.753 10 0 59456 18000.00000 0 4873873.968 -10279416.740 22850056.071 10 0 59456 18900.00000 0 7557518.164 -9525726.386 22436324.973 10 0 59456 19800.00000 0 10212383.640 -8978902.927 21587463.303 10 0 59456 20700.00000 0 12771002.185 -8638865.672 20319622.964 10 0 59456 21600.00000 0 15168070.098 -8493687.682 18657109.141 10 0 59456 22500.00000 0 17342960.288 -8520220.206 16631934.295 10 0 59456 23400.00000 0 19242056.560 -8685206.319 14283219.374 10 0 59456 24300.00000 0 20820812.281 -8946838.321 11656451.790 10 0 59456 25200.00000 0 22045446.277 -9256694.349 8802612.948 10 0 59456 26100.00000 0 22894203.335 -9561972.821 5777191.254 10 0 59456 27000.00000 0 23358124.736 -9807929.906 2639099.458 10 0 59456 27900.00000 0 23441294.839 -9940415.734 -550482.308 10 0 59456 28800.00000 0 23160552.016 -9908400.047 -3729314.085 10 0 59456 29700.00000 0 22544675.514 -9666377.880 -6835329.119 10 0 59456 30600.00000 0 21633082.522 -9176550.532 -9807866.309 10 0 59456 31500.00000 0 20474091.184 -8410686.639 -12588875.673 10 0 59456 32400.00000 0 19122824.270 -7351581.913 -15124071.152 10 0 59456 33300.00000 0 17638843.790 -5994053.558 -17364006.286 10 0 59456 34200.00000 0 16083618.444 -4345425.783 -19265050.124 10 0 59456 35100.00000 0 14517932.671 -2425484.877 -20790243.370 10 0 59456 36000.00000 0 12999348.107 -265905.432 -21910017.653 10 0 59456 36900.00000 0 11579825.458 2090827.973 -22602764.068 10 0 59456 37800.00000 0 10303607.180 4592957.766 -22855240.695 10 0 59456 38700.00000 0 9205449.490 7181383.931 -22662812.369 10 0 59456 39600.00000 0 8309276.797 9791906.494 -22029519.546 10 0 59456 40500.00000 0 7627313.081 12357685.709 -20967976.642 10 0 59456 41400.00000 0 7159724.196 14811817.110 -19499103.550 10 0 59456 42300.00000 0 6894783.358 17089914.188 -17651697.233 10 0 59456 43200.00000 0 6809549.958 19132591.890 -15461853.183 10 0 59456 44100.00000 0 6871030.442 20887748.771 -12972249.182 10 0 59456 45000.00000 0 7037770.096 22312554.366 -10231306.235 10 0 59456 45900.00000 0 7261806.919 23375061.137 -7292243.541 10 0 59456 46800.00000 0 7490904.093 24055376.115 -4212046.067 10 0 59456 47700.00000 0 7670966.463 24346345.676 -1050364.726 10 0 59456 48600.00000 0 7748539.240 24253727.177 2131629.933 10 0 59456 49500.00000 0 7673284.167 23795842.191 5272419.086 10 0 59456 50400.00000 0 7400329.690 23002727.279 8311310.240 10 0 59456 51300.00000 0 6892397.163 21914818.690 11189593.644 10 0 59456 52200.00000 0 6121614.479 20581226.168 13851659.560 10 0 59456 53100.00000 0 5070941.500 19057667.614 16246056.228 10 0 59456 54000.00000 0 3735147.490 17404149.898 18326469.665 10 0 59456 54900.00000 0 2121298.972 15682491.239 20052607.802 10 0 59456 55800.00000 0 248736.362 13953786.924 21390973.064 10 0 59456 56700.00000 0 -1851461.687 12275922.346 22315509.379 10 0 59456 57600.00000 0 -4137506.469 10701235.476 22808111.608 10 0 59456 58500.00000 0 -6558380.090 9274425.063 22858987.449 10 0 59456 59400.00000 0 -9055710.604 8030791.009 22466864.233 10 0 59456 60300.00000 0 -11565966.643 6994880.132 21639035.461 10 0 59456 61200.00000 0 -14022883.002 6179594.300 20391244.510 10 0 59456 62100.00000 0 -16360018.627 5585799.072 18747405.748 10 0 59456 63000.00000 0 -18513342.049 5202450.480 16739166.209 10 0 59456 63900.00000 0 -20423737.131 5007236.087 14405314.109 10 0 59456 64800.00000 0 -22039324.442 4967704.712 11791043.602 10 0 59456 65700.00000 0 -23317500.260 5042838.323 8947088.391 10 0 59456 66600.00000 0 -24226606.236 5185000.381 5928739.977 10 0 59456 67500.00000 0 -24747157.849 5342178.174 2794769.249 10 0 59456 68400.00000 0 -24872578.052 5460423.456 -393727.349 10 0 59456 69300.00000 0 -24609403.521 5486386.428 -3574533.449 10 0 59456 70200.00000 0 -23976953.562 5369833.486 -6685545.158 10 0 59456 71100.00000 0 -23006475.037 5066039.351 -9666004.150 10 0 59456 72000.00000 0 -21739799.488 4537949.386 -12457705.083 10 0 59456 72900.00000 0 -20227569.981 3758017.725 -15006151.576 10 0 59456 73800.00000 0 -18527113.808 2709640.947 -17261636.208 10 0 59456 74700.00000 0 -16700052.570 1388124.771 -19180221.804 10 0 59456 75600.00000 0 -14809752.181 -198858.389 -20724603.859 10 0 59456 76500.00000 0 -12918721.793 -2031340.987 -21864836.873 10 0 59456 77400.00000 0 -11086072.334 -4077658.012 -22578910.536 10 0 59456 78300.00000 0 -9365142.032 -6295545.292 -22853165.352 10 0 59456 79200.00000 0 -7801388.427 -8633691.605 -22682540.741 10 0 59456 80100.00000 0 -6430634.355 -11033678.718 -22070652.333 10 0 59456 81000.00000 0 -5277739.701 -13432227.408 -21029698.634 10 0 59456 81900.00000 0 -4355752.170 -15763655.154 -19580200.614 10 0 59456 82800.00000 0 -3665569.867 -17962442.633 -17750580.965 10 0 59456 83700.00000 0 -3196126.706 -19965802.304 -15576592.671 10 0 59456 84600.00000 0 -2925089.762 -21716142.769 -13100609.221 10 0 59456 85500.00000 0 -2820036.452 -23163327.348 -10370791.199 99